CZ-3B DEB, 40843

Orbit data source: Space-Track

CZ-3B DEB, 40843 is space debris in HEO originally from a launch on Mon, 19 Dec 2011 UTC launched from the Xichang Space Center, China (XSC). Debris objects in space refer to the collection of defunct objects orbiting the Earth. Examples of debris include non-operational satellites, rocket bodies, and fragments generated from explosions, collisions, or faulty payload assembly.

Loading next visibility...
Identifier
40843, 2011-077Y
Orbit
HEO
Country
Flag of CNCN / PRC
Related business
Manufacturer
CALT
Mission
Spacecraft
Bus & Motor
Unknown
Mass
Unknown
Launch date (UTC)
2011-12-19 (14 years ago)
Launch vehicle
Unknown
Launch site
Xichang Space Center, China (XSC)
Object type
Payload
Rocket body
Debris
Shape & HBR
Unknown shape, 0.1 m
Radar Cross Section
Medium (>0.1 m² and <1 m²)

Expand to show TLE details & history
Last TLE update: 9 hours ago

TLE from 9 hours ago
0 CZ-3B DEB
1 40843U 11077Y   26095.34660787  .00005773  00000-0  17603-1 0  9998
2 40843  21.9121 151.8225 7196219 163.0419 247.3267  2.30074024 92778
Epoch: 2026-04-05T08:19Z
TLE epoch observation values (Epoch: 2026-04-05T08:19:06.919Z)
Latitude
0.00001°
Longitude
-166.58392°
Altitude
31,120.402 km
Speed
2.194 km/s
True Right ascension
10h 07m 23s
True Declination
0° 00' 00"
Sunlit
Object was in daylight at epoch
Visualization orbit readout
Latitude
Unknown
Longitude
Unknown
Altitude
Unknown
Speed
Unknown
Apparent Right ascension
Unknown
Apparent Declination
Unknown
Sunlit
N/A
Visualization observer readout
Local Sidereal Time
23:15:45
Azimuth
Unknown
Elevation
Unknown
Doppler factor
Unknown
Orbital elements
Apogee altitude
35,308.829 km
Perigee altitude
418.771 km
Semi-major axis
24,241.937 km
Eccentricity
0.71962
Inclination
21.9121°
RAAN
151.8225°
Arg. of periapsis
163.0419°
True anomaly
196.95988°
Mean anomaly
247.3267°
Eccentric anomaly
220.53175°
Mean motion
0.57503 °/min
Orbital period
626.05 mins
BSTAR
0.017603
Loading maneuver chart data...
Computing Atmospheric mass density...
Loading historical data...
Loading historical data...
Loading historical data...
Loading historical data...
Loading historical data...
Loading historical data...
Loading historical data...

Documentation

Showing up to 5 results
|